GW0859 Weather Reports


time (UTC)temp
C
wind
direction
speed
KPH
gust
KPH
rain 1hr
cm
rain 24hr
cm
rain mn
cm
humidity
%
barometer
mb
20260504140632 16 149 3.2 3.2 0.00 0.00 0.00 49 1013.9
20260504130620 13 183 1.6 3.2 0.00 0.00 0.00 51 1014.2
20260504110600 4 107 1.6 1.6 0.00 0.00 0.00 86 1014.5
20260504100545 1 105 0.0 0.0 0.00 0.00 0.00 91 1014.4
20260504081517 3 125 0.0 1.6 0.00 0.00 0.00 82 1014.2
20260504080515 3 134 1.6 1.6 0.00 0.00 0.00 82 1014.5
20260504050438 5 115 0.0 0.0 0.00 0.00 0.00 75 1014.2
20260504045437 5 116 0.0 1.6 0.00 0.00 0.00 73 1014.3
20260504044437 5 130 0.0 0.0 0.00 0.00 0.00 74 1014.2
20260504043437 5 130 0.0 0.0 0.00 0.00 0.00 74 1014.2
20260504042436 5 150 0.0 1.6 0.00 0.00 0.00 70 1014.2
20260504041435 5 101 0.0 0.0 0.00 0.00 0.00 73 1014.0
20260504040435 5 102 1.6 1.6 0.00 0.00 0.00 72 1013.9
20260504035434 5 102 1.6 1.6 0.00 0.00 0.00 71 1013.8
20260504034434 5 109 0.0 0.0 0.00 0.00 0.00 68 1013.8
20260504033434 5 109 0.0 0.0 0.00 0.00 0.00 69 1013.7
20260504032434 5 109 0.0 0.0 0.00 0.00 0.00 70 1013.6
20260504031433 6 109 0.0 0.0 0.00 0.00 0.00 67 1013.5
20260504030432 6 109 0.0 0.0 0.00 0.00 0.00 65 1013.3
20260504025431 6 109 0.0 0.0 0.00 0.00 0.00 62 1013.6
20260504024431 7 109 0.0 0.0 0.00 0.00 0.00 60 1013.5
20260504023430 7 107 1.6 1.6 0.00 0.00 0.00 59 1013.5
20260504022428 8 109 0.0 0.0 0.00 0.00 0.00 57 1013.5
20260504021428 8 108 1.6 1.6 0.00 0.00 0.00 54 1013.6
20260504020428 8 113 0.0 0.0 0.00 0.00 0.00 54 1013.5
20260504015426 8 112 1.6 1.6 0.00 0.00 0.00 53 1013.4
20260504014425 9 112 0.0 0.0 0.00 0.00 0.00 52 1013.2
20260504013420 9 119 0.0 0.0 0.00 0.00 0.00 52 1013.4
20260504012420 9 156 0.0 0.0 0.00 0.00 0.00 52 1013.1
20260504011418 9 156 0.0 0.0 0.00 0.00 0.00 52 1013.2
20260504010416 9 157 0.0 0.0 0.00 0.00 0.00 52 1013.1
20260504005415 10 178 0.0 0.0 0.00 0.00 0.00 50 1012.9
20260504004410 11 154 0.0 0.0 0.00 0.00 0.00 47 1012.9
20260504003409 11 163 0.0 1.6 0.00 0.00 0.00 46 1012.6
20260504002409 11 186 0.0 0.0 0.00 0.00 0.00 45 1012.5
20260504001404 11 132 0.0 0.0 0.00 0.00 0.00 45 1012.7
20260504000403 11 40 1.6 3.2 0.00 0.00 0.00 44 1012.4
20260503235358 12 234 3.2 3.2 0.00 0.00 0.00 44 1012.5
20260503234353 12 197 1.6 1.6 0.00 0.00 0.00 43 1012.1
20260503233353 12 133 1.6 3.2 0.00 0.00 0.00 43 1011.9
20260503232352 12 184 0.0 1.6 0.00 0.00 0.00 41 1011.9
20260503231347 13 228 4.8 8.0 0.00 0.00 0.00 42 1012.0
20260503230346 13 120 0.0 1.6 0.00 0.00 0.00 41 1011.8
20260503225345 13 38 4.8 4.8 0.00 0.00 0.00 40 1011.5
20260503224345 13 81 1.6 3.2 0.00 0.00 0.00 41 1011.9
20260503223340 13 256 3.2 3.2 0.00 0.00 0.00 39 1011.8
20260503222340 13 219 3.2 3.2 0.00 0.00 0.00 41 1011.9
20260503221336 13 264 11.3 12.9 0.00 0.00 0.00 39 1011.7
20260503220335 13 116 0.0 1.6 0.00 0.00 0.00 40 1011.6
20260503215335 13 82 1.6 1.6 0.00 0.00 0.00 39 1011.7
20260503214335 13 34 0.0 1.6 0.00 0.00 0.00 37 1011.8
20260503213330 14 258 3.2 3.2 0.00 0.00 0.00 36 1011.6
20260503212325 14 337 4.8 9.7 0.00 0.00 0.00 37 1011.5
20260503211325 14 110 4.8 4.8 0.00 0.00 0.00 37 1011.5
20260503210322 15 25 9.7 14.5 0.00 0.00 0.00 34 1011.5
20260503205320 15 193 1.6 1.6 0.00 0.00 0.00 35 1011.3
20260503204320 15 254 6.4 9.7 0.00 0.00 0.00 33 1011.4
20260503203320 14 280 6.4 9.7 0.00 0.00 0.00 34 1011.6
20260503202315 15 83 0.0 1.6 0.00 0.00 0.00 36 1011.5
20260503201315 14 5 4.8 8.0 0.00 0.00 0.00 35 1011.6
20260503200315 14 6 6.4 9.7 0.00 0.00 0.00 35 1011.8
20260503195315 14 187 1.6 1.6 0.00 0.00 0.00 35 1011.9
20260503194314 13 282 11.3 12.9 0.00 0.00 0.00 35 1012.1
20260503193312 14 131 1.6 1.6 0.00 0.00 0.00 37 1012.3
20260503192309 13 111 1.6 3.2 0.00 0.00 0.00 39 1012.6
20260503191309 14 93 4.8 4.8 0.00 0.00 0.00 37 1012.7
20260503190308 14 141 3.2 4.8 0.00 0.00 0.00 40 1012.7
20260503185307 13 121 3.2 3.2 0.00 0.00 0.00 37 1012.7
20260503184304 12 296 4.8 8.0 0.00 0.00 0.00 40 1012.8
20260503183303 12 266 11.3 14.5 0.00 0.00 0.00 37 1013.0
20260503182259 12 341 12.9 17.7 0.00 0.00 0.00 38 1013.1
20260503181259 11 333 8.0 12.9 0.00 0.00 0.00 40 1013.0
20260503180259 12 1 3.2 4.8 0.00 0.00 0.00 41 1013.0
20260503175254 12 306 12.9 14.5 0.00 0.00 0.00 38 1013.0
20260503174253 11 292 4.8 9.7 0.00 0.00 0.00 39 1013.2
20260503173249 11 338 1.6 1.6 0.00 0.00 0.00 39 1013.2
20260503172249 12 320 1.6 3.2 0.00 0.00 0.00 40 1013.4
20260503171249 11 338 4.8 4.8 0.00 0.00 0.00 41 1013.4
20260503170248 11 146 1.6 1.6 0.00 0.00 0.00 41 1013.4
20260503150222 9 221 4.8 8.0 0.00 0.00 0.00 50 1014.4